TimeEDT,TemperatureF,Dew PointF,Humidity,Sea Level PressureIn,VisibilityMPH,Wind Direction,Wind SpeedMPH,Gust SpeedMPH,PrecipitationIn,Events,Conditions,WindDirDegrees,DateUTC
12:53 AM,68.0,66.0,93,30.11,10.0,Calm,Calm,-,N/A,,Clear,0,2013-07-08 04:53:00
1:53 AM,66.0,64.9,96,30.10,9.0,Calm,Calm,-,N/A,,Clear,0,2013-07-08 05:53:00
2:53 AM,66.0,64.9,96,30.10,10.0,Calm,Calm,-,N/A,,Clear,0,2013-07-08 06:53:00
3:53 AM,64.9,64.0,97,30.10,10.0,Calm,Calm,-,N/A,,Clear,0,2013-07-08 07:53:00
4:53 AM,64.9,64.0,97,30.11,8.0,Calm,Calm,-,N/A,,Clear,0,2013-07-08 08:53:00
5:53 AM,64.9,64.0,97,30.12,8.0,Calm,Calm,-,N/A,,Clear,0,2013-07-08 09:53:00
6:53 AM,64.9,64.0,97,30.13,8.0,Calm,Calm,-,N/A,,Clear,0,2013-07-08 10:53:00
7:53 AM,69.1,68.0,96,30.12,9.0,SW,3.5,-,N/A,,Clear,230,2013-07-08 11:53:00
8:53 AM,73.0,70.0,90,30.14,10.0,SW,5.8,-,N/A,,Clear,220,2013-07-08 12:53:00
9:53 AM,78.1,71.1,79,30.14,10.0,Variable,3.5,-,N/A,,Clear,0,2013-07-08 13:53:00
10:53 AM,81.0,71.1,72,30.15,10.0,WSW,5.8,-,N/A,,Clear,240,2013-07-08 14:53:00
11:53 AM,82.9,70.0,65,30.15,10.0,WSW,6.9,-,N/A,,Clear,250,2013-07-08 15:53:00
12:53 PM,82.9,70.0,65,30.15,10.0,Variable,3.5,-,N/A,,Clear,0,2013-07-08 16:53:00
1:53 PM,84.9,70.0,61,30.14,10.0,WSW,4.6,-,N/A,,Clear,250,2013-07-08 17:53:00
2:53 PM,84.9,69.1,59,30.13,10.0,SW,5.8,-,N/A,,Clear,230,2013-07-08 18:53:00
3:53 PM,87.1,69.1,55,30.11,10.0,SW,8.1,-,N/A,,Scattered Clouds,220,2013-07-08 19:53:00
4:53 PM,86.0,69.1,57,30.09,10.0,SW,6.9,-,N/A,,Partly Cloudy,230,2013-07-08 20:53:00
5:53 PM,82.9,68.0,60,30.08,10.0,WSW,3.5,-,N/A,,Clear,240,2013-07-08 21:53:00
6:53 PM,82.9,70.0,65,30.06,10.0,SW,8.1,-,N/A,,Clear,220,2013-07-08 22:53:00
7:53 PM,82.9,69.1,63,30.06,10.0,SW,4.6,-,N/A,,Clear,220,2013-07-08 23:53:00
8:53 PM,79.0,70.0,74,30.08,10.0,SSW,3.5,-,N/A,,Clear,210,2013-07-09 00:53:00
9:53 PM,73.9,71.1,91,30.09,10.0,Calm,Calm,-,N/A,,Clear,0,2013-07-09 01:53:00
10:53 PM,73.0,71.1,93,30.11,10.0,Calm,Calm,-,N/A,,Partly Cloudy,0,2013-07-09 02:53:00
11:53 PM,73.0,70.0,90,30.10,10.0,Calm,Calm,-,N/A,,Clear,0,2013-07-09 03:53:00